Cloud_Cover
100 100 100 96 100 97 100 39 69 54 100 100 100 100 100 98 100 100 100 100 100 100 88 100 54 65 42 6 45 48 46 14
100 100 100 100 100 100 100 100 91 17 83 100 100 100 100 100 100 100 100 100 100 100 100 25 86 98 76 20 8 58 96 68
100 100 100 100 100 100 100 100 100 93 99 100 100 100 100 100 100 100 100 100 99 100 46 5 18 6 55 5 30 77 99 99
100 100 100 100 90 100 100 99 100 88 100 100 100 100 100 100 100 100 100 100 100 100 100 12 95 29 5 22 95 100 99 100
100 100 100 100 100 100 100 100 100 100 100 100 100 100 100 100 100 100 100 100 100 73 30 95 8 43 95 78 73 100 100 100
100 100 100 100 100 100 100 100 100 100 100 100 100 100 100 100 100 100 100 100 23 5 31 45 64 97 100 100 100 100 11 71
100 100 100 100 100 100 100 100 100 100 100 100 100 100 100 100 100 100 100 60 75 53 75 51 72 66 100 100 100 100 95 71
100 100 100 100 100 100 100 100 100 100 100 100 100 100 100 100 100 100 63 49 58 76 42 35 23 77 100 98 84 90 98 92
100 100 100 100 100 100 100 100 100 100 100 100 100 100 100 100 100 100 46 7 73 65 92 98 92 100 100 100 91 85 94 83
100 100 100 100 100 100 100 100 100 100 100 100 100 100 100 100 100 100 95 100 31 84 100 100 98 94 30 64 97 100 99 93
100 100 100 100 100 100 100 100 100 100 100 100 100 100 100 100 100 100 94 94 89 76 54 54 75 29 75 53 73 96 99 85
100 100 100 100 100 100 100 100 100 100 100 100 100 100 100 100 100 100 100 100 95 70 86 32 5 50 100 66 78 100 73 97
100 100 100 100 100 100 100 100 100 100 100 100 100 100 100 100 100 100 100 98 100 91 100 70 29 42 93 95 69 73 100 90
100 100 100 100 100 100 100 100 100 100 100 100 100 100 100 100 100 100 90 89 100 92 92 41 72 97 47 100 58 92 50 99
100 100 100 100 100 100 100 100 100 100 100 100 100 100 100 100 97 98 96 61 88 100 92 100 80 96 100 76 74 65 78 100
96 100 100 100 100 100 100 100 100 100 100 100 100 100 100 100 100 100 100 100 100 100 96 100 100 100 100 100 98 61 64 68
100 97 100 100 100 100 100 100 100 100 100 100 100 100 100 100 100 100 100 100 100 100 100 100 100 100 100 100 100 100 100 96
84 100 100 100 100 100 100 100 100 100 100 100 100 100 100 100 100 100 100 100 100 100 100 100 100 100 100 100 100 100 89 100
2 75 100 100 100 100 100 100 100 100 100 100 100 100 100 100 100 100 100 100 100 100 100 100 100 100 100 100 100 100 88 98
0 0 4 93 100 100 100 100 100 100 100 100 100 100 100 100 100 100 100 100 100 100 100 100 100 100 100 100 100 100 41 96